EDT,Max TemperatureF,Mean TemperatureF,Min TemperatureF,Max Dew PointF,MeanDew PointF,Min DewpointF,Max Humidity, Mean Humidity, Min Humidity, Max Sea Level PressureIn, Mean Sea Level PressureIn, Min Sea Level PressureIn, Max VisibilityMiles, Mean VisibilityMiles, Min VisibilityMiles, Max Wind SpeedMPH, Mean Wind SpeedMPH, Max Gust SpeedMPH,PrecipitationIn, CloudCover, Events, WindDirDegrees
2012-9-1,74,63,52,63,52,44,96,69,35,30.11,30.05,29.89,10,9,1,9,3,,0.00,0,,359
2012-9-2,75,61,47,55,49,44,92,67,33,30.12,30.09,30.08,10,10,7,7,3,,0.00,1,,90
2012-9-3,83,64,48,60,52,46,91,62,35,30.16,30.10,30.03,10,10,10,8,2,16,0.00,0,,162
2012-9-4,77,69,61,65,59,53,95,72,54,30.04,29.96,29.79,10,9,2,12,7,17,0.00,6,Rain,153
2012-9-5,77,69,61,64,62,60,95,83,55,29.85,29.79,29.69,10,9,3,13,6,18,0.00,6,Rain,9
2012-9-6,83,71,59,67,62,58,96,81,45,29.86,29.82,29.77,10,10,7,9,3,,0.00,2,Rain,179
2012-9-7,79,68,57,65,59,51,96,73,39,29.91,29.87,29.79,10,9,1,7,2,,0.00,0,,169
2012-9-8,81,70,55,65,60,49,94,70,48,29.76,29.59,29.38,10,10,0,24,9,41,0.00,2,Rain,175
2012-9-9,69,58,49,49,47,45,90,65,44,29.92,29.84,29.71,10,10,10,10,4,20,0.00,5,,291
2012-9-10,62,54,46,49,44,39,90,69,45,30.11,30.01,29.92,10,10,10,12,2,17,0.00,6,,315
2012-9-11,70,54,39,48,43,37,95,68,40,30.25,30.19,30.11,10,10,10,8,1,,0.00,0,,181
2012-9-12,79,64,51,53,48,45,82,58,35,30.30,30.25,30.21,10,10,10,10,6,,0.00,0,,183
2012-9-13,81,70,59,59,54,49,83,60,40,30.29,30.24,30.18,10,10,10,9,5,16,0.00,0,,192
2012-9-14,80,70,59,62,56,52,80,62,42,30.19,30.09,29.95,10,10,10,10,5,17,0.00,1,Rain,189
2012-9-15,61,55,49,56,48,43,94,75,52,30.09,30.06,29.99,10,10,7,10,4,23,0.00,7,Rain,286
2012-9-16,61,50,38,45,39,33,95,68,37,30.13,30.06,30.01,10,10,7,8,2,,0.00,0,,287
2012-9-17,77,58,40,60,49,38,92,68,46,30.04,29.98,29.93,10,10,10,10,5,16,0.00,2,,170
2012-9-18,74,66,57,65,56,47,94,76,57,29.93,29.69,29.43,10,9,2,23,10,34,0.00,5,Rain,161
2012-9-19,59,53,41,63,42,35,93,73,43,30.22,29.99,29.55,10,10,4,10,5,21,0.00,4,Rain,280
2012-9-20,67,52,36,45,40,35,92,68,37,30.25,30.15,30.05,10,10,10,13,5,21,0.00,0,,148
2012-9-21,73,60,49,57,50,43,78,65,50,30.05,29.99,29.92,10,10,10,14,7,21,0.00,2,,172
2012-9-22,73,63,54,57,53,48,94,76,54,29.95,29.81,29.72,10,9,4,21,8,30,0.00,4,Rain,161
2012-9-23,63,54,46,55,42,35,94,67,39,30.07,29.94,29.80,10,10,10,10,3,,0.00,5,,269
2012-9-24,60,50,40,45,41,37,95,70,43,30.11,30.05,29.99,10,10,10,9,3,,0.00,3,,189
2012-9-25,68,58,47,46,41,37,69,56,43,30.01,29.98,29.95,10,10,10,12,7,21,0.00,3,,180
2012-9-26,67,59,51,57,50,40,92,74,51,30.06,29.96,29.90,10,10,7,13,7,20,0.00,6,Rain,184
2012-9-27,57,48,39,50,42,37,96,78,48,30.26,30.20,30.07,10,8,0,8,1,,0.00,2,Fog,39
2012-9-28,60,48,36,48,41,35,93,80,54,30.25,30.14,30.03,10,10,7,10,4,,0.00,4,,136
2012-9-29,52,50,49,51,50,48,95,94,88,30.02,29.97,29.94,10,6,2,10,2,,0.00,8,Rain,6
2012-9-30,54,52,49,50,49,48,96,94,86,29.94,29.80,29.59,10,7,4,7,2,,0.00,8,Rain,322